Showing default

EXPLORER 7, 22

Orbit data source: Space-Track

EXPLORER 7, 22 is a payload satellite owned by GSFC (US) in LEO that was launched on Tue, 13 Oct 1959 UTC via a JUNO II launch vehicle from the Air Force Eastern Test Range (AFETR). Payload-class satellites include a variety of spacecraft equipped with specific instruments for various scientific and technological missions. These include communications satellites like Starlink; space stations such as the ISS; scientific satellites like the Hubble; Earth observation satellites from companies like Planet Labs, Umbra, and HawkEye 360; GPS; miniature CubeSats for education and research; and military/defense satellites.

Loading next visibility...
Identifier
22, 1959-009A
Orbit
LEO
Country
Flag of USUS
Related business
Manufacturer
ABMA
Mission
Spacecraft
Bus & Motor
S-1, Unknown motor
Mass
41 kg wet, 41 kg dry
Launch date (UTC)
1959-10-13 (66 years ago)
Launch vehicle
JUNO II
Launch site
Air Force Eastern Test Range (AFETR)
Object type
Payload
Rocket body
Debris
Shape & HBR
Unknown
Radar Cross Section
Medium (>0.1 m² and <1 m²)

Expand to show TLE details & history
Last TLE update: 7 hours ago

TLE from 7 hours ago
0 EXPLORER 7
1    22U 59009A   25290.81073763  .00015970  00000-0  63091-3 0  9994
2    22  50.2791 212.8452 0086827 230.3536 128.9738 15.22163148763341
Epoch: 2025-10-17T19:27Z
TLE epoch observation values (Epoch: 2025-10-17T19:27:27.731Z)
Latitude
-0.00004°
Longitude
-105.57114°
Altitude
537.768 km
Speed
7.574 km/s
True Right ascension
14h 11m 22s
True Declination
0° 00' 00"
Sunlit
Object was in daylight at epoch
Visualization orbit readout
Latitude
Unknown
Longitude
Unknown
Altitude
Unknown
Speed
Unknown
Apparent Right ascension
Unknown
Apparent Declination
Unknown
Sunlit
N/A
Visualization observer readout
Local Sidereal Time
21:03:13
Azimuth
Unknown
Elevation
Unknown
Doppler factor
Unknown
Orbital elements
Apogee altitude
559.764 km
Perigee altitude
440.321 km
Semi-major axis
6,878.179 km
Eccentricity
0.00868
Inclination
50.2791°
RAAN
212.8452°
Arg. of periapsis
230.3536°
True anomaly
129.74205°
Mean anomaly
128.9738°
Eccentric anomaly
129.35845°
Mean motion
3.80481 °/min
Orbital period
94.62 mins
BSTAR
0.00063091
Loading maneuver chart data...
Computing Atmospheric mass density...
Loading historical data...
Loading historical data...
Loading historical data...
Loading historical data...
Loading historical data...
Loading historical data...
Loading historical data...
Other satellites on launch #9 in the year 1959 (1959-10-13 UTC)

Documentation

Showing up to 5 results
|